Meteo pe oră la Dziady

Astăzi, 3 Martie, Miercuri

Timp Temperatura Precipitaţii Vânt Presiune Umiditate
00:00 +3°C° 0 mm 1 m/s 751 mmHg 88%
01:00 +2°C° 0 mm 0 m/s 751 mmHg 88%
02:00 +3°C° 0 mm 1 m/s 750 mmHg 88%
03:00 +3°C° 0 mm 1 m/s 750 mmHg 89%
04:00 +2°C° 0 mm 1 m/s 749 mmHg 89%
05:00 +2°C° 0 mm 1 m/s 749 mmHg 89%
06:00 +3°C° 0 mm 1 m/s 749 mmHg 89%
07:00 +3°C° 0 mm 1 m/s 749 mmHg 89%
08:00 +4°C° 0 mm 1 m/s 749 mmHg 81%
09:00 +6°C° 0 mm 1 m/s 748 mmHg 73%
10:00 +8°C° 0 mm 1 m/s 748 mmHg 66%
11:00 +8°C° 0 mm 2 m/s 748 mmHg 61%
12:00 +9°C° 0 mm 2 m/s 747 mmHg 56%
13:00 +12°C° 0 mm 2 m/s 747 mmHg 51%
14:00 +12°C° 0 mm 2 m/s 746 mmHg 52%
15:00 +12°C° 0 mm 1 m/s 746 mmHg 52%
16:00 +12°C° 0 mm 1 m/s 745 mmHg 53%
17:00 +10°C° 0 mm 2 m/s 745 mmHg 56%
18:00 +8°C° 0 mm 2 m/s 744 mmHg 59%
19:00 +7°C° 0 mm 2 m/s 744 mmHg 62%
20:00 +5°C° 0 mm 3 m/s 744 mmHg 66%
21:00 +5°C° 0 mm 3 m/s 743 mmHg 70%
22:00 +4°C° 0 mm 4 m/s 743 mmHg 73%
23:00 +4°C° 0 mm 4 m/s 742 mmHg 76%

Mâine, 4 Martie, Joi

Timp Temperatura Precipitaţii Vânt Presiune Umiditate
00:00 +3°C° 0 mm 4 m/s 742 mmHg 78%
01:00 +3°C° 0 mm 4 m/s 741 mmHg 81%
02:00 +3°C° 0 mm 4 m/s 741 mmHg 81%
03:00 +3°C° 0 mm 4 m/s 740 mmHg 81%
04:00 +3°C° 0 mm 4 m/s 739 mmHg 80%
05:00 +2°C° 0 mm 5 m/s 739 mmHg 82%
06:00 +2°C° 0 mm 5 m/s 739 mmHg 83%
07:00 +2°C° 0 mm 5 m/s 739 mmHg 84%
08:00 +3°C° 0 mm 6 m/s 738 mmHg 81%
09:00 +4°C° 0 mm 6 m/s 738 mmHg 78%
10:00 +5°C° 0 mm 6 m/s 738 mmHg 74%
11:00 +7°C° 0 mm 6 m/s 737 mmHg 67%
12:00 +9°C° 0 mm 7 m/s 737 mmHg 60%
13:00 +10°C° 0 mm 7 m/s 737 mmHg 53%
14:00 +9°C° 0 mm 7 m/s 736 mmHg 55%
15:00 +9°C° 0 mm 7 m/s 736 mmHg 57%
16:00 +8°C° 0 mm 7 m/s 735 mmHg 59%
17:00 +7°C° 0.1 mm 6 m/s 736 mmHg 65%
18:00 +6°C° 0.1 mm 5 m/s 736 mmHg 70%
19:00 +4°C° 0.1 mm 4 m/s 736 mmHg 76%
20:00 +3°C° 0.1 mm 4 m/s 736 mmHg 78%
21:00 +2°C° 0.1 mm 3 m/s 736 mmHg 81%
22:00 +1°C° 0.1 mm 3 m/s 736 mmHg 83%
23:00 +1°C° 0.2 mm 3 m/s 736 mmHg 86%

Poimâine, 5 Martie, Vineri

Timp Temperatura Precipitaţii Vânt Presiune Umiditate
00:00 -1°C° 0.2 mm 4 m/s 736 mmHg 90%
01:00 -1°C° 0.2 mm 4 m/s 736 mmHg 93%
02:00 -2°C° 0.3 mm 4 m/s 736 mmHg 88%
03:00 -2°C° 0.3 mm 4 m/s 736 mmHg 84%
04:00 -4°C° 0.3 mm 5 m/s 736 mmHg 79%
05:00 -3°C° 0 mm 4 m/s 737 mmHg 79%
06:00 -3°C° 0 mm 4 m/s 738 mmHg 78%
07:00 -3°C° 0 mm 4 m/s 738 mmHg 77%
08:00 -3°C° 0 mm 4 m/s 739 mmHg 71%
09:00 -2°C° 0 mm 4 m/s 739 mmHg 65%
10:00 -1°C° 0 mm 4 m/s 740 mmHg 59%
11:00 -1°C° 0 mm 4 m/s 740 mmHg 54%
12:00 0°C° 0 mm 4 m/s 740 mmHg 50%
13:00 +1°C° 0 mm 4 m/s 741 mmHg 45%
14:00 0°C° 0 mm 4 m/s 741 mmHg 45%
15:00 0°C° 0 mm 4 m/s 741 mmHg 45%
16:00 0°C° 0 mm 4 m/s 741 mmHg 45%
17:00 0°C° 0.1 mm 3 m/s 742 mmHg 50%
18:00 0°C° 0.1 mm 3 m/s 742 mmHg 55%
19:00 -1°C° 0.1 mm 2 m/s 743 mmHg 60%
20:00 -1°C° 0 mm 2 m/s 743 mmHg 61%
21:00 -2°C° 0 mm 2 m/s 744 mmHg 63%
22:00 -2°C° 0 mm 2 m/s 744 mmHg 65%
23:00 -2°C° 0 mm 3 m/s 745 mmHg 65%

6 Martie, Sâmbătă

Timp Temperatura Precipitaţii Vânt Presiune Umiditate
00:00 -2°C° 0 mm 3 m/s 745 mmHg 66%
01:00 -3°C° 0 mm 4 m/s 745 mmHg 67%
02:00 -3°C° 0 mm 4 m/s 746 mmHg 69%
03:00 -4°C° 0 mm 4 m/s 746 mmHg 70%
04:00 -4°C° 0 mm 4 m/s 746 mmHg 72%
05:00 -4°C° 0 mm 4 m/s 747 mmHg 70%
06:00 -4°C° 0 mm 4 m/s 747 mmHg 68%
07:00 -4°C° 0 mm 4 m/s 748 mmHg 65%
08:00 -3°C° 0 mm 4 m/s 748 mmHg 59%
09:00 -3°C° 0 mm 4 m/s 749 mmHg 52%
10:00 -2°C° 0 mm 4 m/s 749 mmHg 45%
11:00 -1°C° 0 mm 4 m/s 749 mmHg 44%
12:00 -1°C° 0 mm 4 m/s 749 mmHg 43%
13:00 0°C° 0 mm 4 m/s 749 mmHg 42%
14:00 0°C° 0 mm 4 m/s 748 mmHg 43%
15:00 0°C° 0 mm 4 m/s 748 mmHg 43%
16:00 0°C° 0 mm 4 m/s 748 mmHg 44%
17:00 -1°C° 0 mm 4 m/s 748 mmHg 48%
18:00 -1°C° 0 mm 3 m/s 748 mmHg 52%
19:00 -2°C° 0 mm 3 m/s 748 mmHg 56%
20:00 -2°C° 0 mm 3 m/s 748 mmHg 56%
21:00 -3°C° 0 mm 4 m/s 747 mmHg 56%
22:00 -3°C° 0 mm 4 m/s 747 mmHg 56%
23:00 -4°C° 0 mm 5 m/s 747 mmHg 55%

7 Martie, Duminică

Timp Temperatura Precipitaţii Vânt Presiune Umiditate
00:00 -4°C° 0 mm 5 m/s 746 mmHg 54%
01:00 -4°C° 0 mm 5 m/s 746 mmHg 52%
02:00 -4°C° 0 mm 6 m/s 745 mmHg 51%
03:00 -4°C° 0 mm 6 m/s 745 mmHg 50%
04:00 -4°C° 0 mm 6 m/s 744 mmHg 49%
05:00 -4°C° 0 mm 6 m/s 744 mmHg 48%
06:00 -4°C° 0 mm 6 m/s 744 mmHg 47%
07:00 -4°C° 0 mm 6 m/s 743 mmHg 46%
08:00 -3°C° 0 mm 7 m/s 743 mmHg 45%
09:00 -2°C° 0 mm 7 m/s 743 mmHg 43%
10:00 -1°C° 0 mm 8 m/s 742 mmHg 41%
11:00 0°C° 0 mm 8 m/s 742 mmHg 41%
12:00 +1°C° 0 mm 8 m/s 741 mmHg 41%
13:00 +1°C° 0 mm 8 m/s 741 mmHg 41%
14:00 +2°C° 0 mm 7 m/s 740 mmHg 43%
15:00 +2°C° 0 mm 7 m/s 739 mmHg 46%
16:00 +2°C° 0 mm 6 m/s 739 mmHg 48%
17:00 +1°C° 0 mm 6 m/s 739 mmHg 53%
18:00 -1°C° 0 mm 5 m/s 738 mmHg 58%
19:00 -2°C° 0 mm 4 m/s 738 mmHg 63%
20:00 -2°C° 0 mm 4 m/s 738 mmHg 67%
21:00 -2°C° 0 mm 4 m/s 738 mmHg 71%
22:00 -3°C° 0 mm 4 m/s 738 mmHg 75%
23:00 -3°C° 0.2 mm 4 m/s 738 mmHg 81%

8 Martie, Luni

Timp Temperatura Precipitaţii Vânt Presiune Umiditate
00:00 -4°C° 0.2 mm 5 m/s 738 mmHg 87%
01:00 -4°C° 0.2 mm 5 m/s 738 mmHg 93%
02:00 -5°C° 0.3 mm 5 m/s 738 mmHg 90%
03:00 -4°C° 0.3 mm 4 m/s 739 mmHg 86%
04:00 -5°C° 0.3 mm 3 m/s 739 mmHg 83%
05:00 -5°C° 0 mm 3 m/s 740 mmHg 80%
06:00 -5°C° 0 mm 3 m/s 740 mmHg 78%
07:00 -5°C° 0 mm 3 m/s 741 mmHg 75%
08:00 -5°C° 0 mm 4 m/s 741 mmHg 68%
09:00 -4°C° 0 mm 4 m/s 742 mmHg 61%
10:00 -4°C° 0 mm 5 m/s 743 mmHg 54%
11:00 -4°C° 0 mm 5 m/s 743 mmHg 53%
12:00 -4°C° 0 mm 5 m/s 743 mmHg 52%
13:00 -2°C° 0 mm 5 m/s 743 mmHg 51%
14:00 -2°C° 0 mm 5 m/s 744 mmHg 53%
15:00 -2°C° 0 mm 5 m/s 744 mmHg 55%
16:00 -4°C° 0 mm 5 m/s 744 mmHg 57%
17:00 -3°C° 0 mm 4 m/s 744 mmHg 63%
18:00 -4°C° 0 mm 3 m/s 745 mmHg 68%
19:00 -4°C° 0 mm 2 m/s 745 mmHg 74%
20:00 -4°C° 0 mm 2 m/s 746 mmHg 73%
21:00 -4°C° 0 mm 2 m/s 746 mmHg 73%
22:00 -3°C° 0 mm 1 m/s 746 mmHg 72%
23:00 -3°C° 0 mm 1 m/s 747 mmHg 71%
Arată mai mult

Formular de consimțământ

Meteoprog și furnizorii noștri de servicii pot stoca și accesa date personale, precum cookies, identificatori de dispozitiv sau alte tehnologii similare pe dispozitivul dumneavoastră și procesa astfel de date pentru a personaliza conținutul și reclamele, dar și pentru a oferi caracteristici de social media și pentru a analiza traficul.

  • Stocarea și/sau accesarea informațiilor pe dispozitivul dumneavoastră

    Cookies, identificatori de dispozitiv sau alte informații pot fi stocate sau accesate pe dispozitiv în scopurile indicate mai sus.

  • Reclame și conținut personalizat, evaluarea reclamelor și a conținutului, informații despre audiențe și dezvoltarea produselor

    Reclamele și conținutul pot fi personalizate pe baza unui profil. Pot fi adăugate date suplimentare pentru a personaliza mai bine reclamele și conținutul. Performanța reclamelor și conținutului poate fi măsurată. Pot fi obținute informații despre utilizatorii care au văzut reclamele și conținutul. Aceste date pot fi utilizate pentru a dezvolta sau îmbunătăți experiența utilizatorilor, sistemele și software-ul.

Dând clic pe ‘Sunt de acord’, permiteți utilizarea cookie-urilor menționate, a identificatorilor de dispozitiv, balizelor web sau altor tehnologii similare. Setările pot fi modificate din browser-ul dispozitivului dumneavoastră.

În anumite scopuri, interesele legitime pot prima asupra consimțământului. Puteți citi mai multe informații în acest sens în Politica privind Confidențialitatea Datelor și Cookie.